Location: Mohawk View
(42.7837°N, 73.7885°W)
Time: 08:11:02
(UTC+00:00)

Cosmos 1707 - Pass Details

Date: 17 June 2021
Orbit: 514 x 529 km, 82.5° (Epoch: 27 July)

Event Time Altitude Azimuth Distance (km) Brightness Sun altitude
Exits shadow 01:38:26 - 184° (S) 2,383 5.7 -9.7°
Reaches altitude 10° 01:39:56 10° 184° (S) 1,757 5.0 -9.9°
Maximum altitude 01:43:48 82° 98° (E) 537 2.7 -10.4°
Drops below altitude 10° 01:47:43 10° 10° (N) 1,781 6.0 -10.9°
Sets 01:49:52 0° 10° (N) 2,677 6.9 -11.2°
